Date,TemperatureHighF,TemperatureAvgF,TemperatureLowF,DewpointHighF,DewpointAvgF,DewpointLowF,HumidityHigh,HumidityAvg,HumidityLow,PressureMaxIn,PressureMinIn,WindSpeedMaxMPH,WindSpeedAvgMPH,GustSpeedMaxMPH,PrecipitationSumIn
2013-9-1,84,76,72,74,71,68,93,84,66,29.80,29.72,4,0,4,0.01
2013-9-2,79,74,71,74,71,69,96,91,73,29.75,29.65,5,0,5,0.12
2013-9-3,82,72,64,70,62,54,97,74,43,29.83,29.66,6,1,6,0.12
2013-9-4,83,70,59,60,57,51,91,67,37,29.94,29.83,10,1,10,0.00
2013-9-5,77,67,56,60,52,38,89,64,27,30.10,29.86,12,1,12,0.00
2013-9-6,73,60,51,50,44,39,85,59,32,30.20,30.08,6,0,6,0.00
2013-9-7,81,63,48,56,49,42,93,64,29,30.08,29.84,7,0,7,0.00
2013-9-8,80,69,60,62,54,41,83,60,30,30.03,29.76,12,1,12,0.00
2013-9-9,73,62,50,57,49,44,85,65,41,30.18,30.03,5,0,5,0.00
2013-9-10,87,74,65,72,66,57,90,77,58,30.09,29.98,9,1,9,0.00
2013-9-11,94,82,72,75,72,68,93,74,51,30.06,29.91,10,1,10,0.00
2013-9-12,85,74,68,75,70,66,96,86,65,29.92,29.61,15,0,15,1.00
2013-9-13,76,66,57,66,58,47,97,77,48,29.81,29.57,13,1,13,0.04
2013-9-14,66,57,50,48,46,43,84,67,51,30.07,29.80,9,1,9,0.00
2013-9-15,73,57,44,53,46,40,94,70,34,30.15,30.02,6,0,6,0.00
2013-9-16,72,61,56,57,52,46,93,74,47,30.19,29.97,7,0,7,0.01
2013-9-17,66,55,45,46,40,34,87,59,34,30.37,30.19,5,0,5,0.00
2013-9-18,73,56,42,49,44,40,95,69,33,30.29,30.12,7,0,7,0.00
2013-9-19,78,59,44,53,48,42,94,70,32,30.13,30.00,9,0,9,0.00
2013-9-20,82,63,49,58,53,47,95,74,39,30.03,29.92,6,0,6,0.00
2013-9-21,78,64,51,66,58,49,95,82,47,29.96,29.60,5,0,5,0.65
2013-9-22,67,60,53,64,50,39,96,71,45,29.86,29.60,13,1,13,0.30
2013-9-23,66,55,46,45,41,38,81,60,40,29.99,29.86,10,1,10,0.00
2013-9-24,75,56,42,48,42,38,90,63,29,29.99,29.81,12,1,12,0.00
2013-9-25,74,59,46,52,46,42,90,67,36,29.90,29.81,5,0,5,0.00
2013-9-26,72,60,51,56,52,48,92,76,52,30.04,29.88,4,0,4,0.00
2013-9-27,67,59,51,53,50,47,89,73,55,30.20,30.04,4,0,4,0.00
2013-9-28,74,62,53,53,51,48,90,70,41,30.27,30.18,4,0,4,0.00
2013-9-29,73,60,51,56,52,49,94,77,45,30.18,30.01,4,0,4,0.00
2013-9-30,76,60,48,55,50,47,95,75,39,30.03,29.91,4,0,4,0.00